This is the latest recevied weather packets stored in our database for station/object IW0HP-13. If no packets are shown the sender has not sent any weather packets the latest 10 day(s).
| Time | Temp. | Humidity | Pressure | Rain* | Wind** | Luminosity | Snow |
|---|---|---|---|---|---|---|---|
| 1777362978 | 18.89° C | 47% | 1017.1 hPa | - | - | - | - |
| 1777361777 | 18.33° C | 49% | 1017.1 hPa | - | - | - | - |
| 1777360577 | 17.78° C | 50% | 1017.1 hPa | - | - | - | - |
| 1777359377 | 17.22° C | 51% | 1017.1 hPa | - | - | - | - |
| 1777358177 | 16.67° C | 51% | 1017.2 hPa | - | - | - | - |
| 1777356976 | 16.11° C | 52% | 1017.3 hPa | - | - | - | - |
| 1777355776 | 15.56° C | 54% | 1017.3 hPa | - | - | - | - |
| 1777354576 | 15.56° C | 54% | 1017.4 hPa | - | - | - | - |
| 1777353376 | 15° C | 54% | 1017.2 hPa | - | - | - | - |
| 1777352175 | 15° C | 54% | 1017 hPa | - | - | - | - |
| 1777350975 | 15° C | 55% | 1017.1 hPa | - | - | - | - |
| 1777349775 | 15° C | 55% | 1017 hPa | - | - | - | - |
| 1777348575 | 15° C | 54% | 1017 hPa | - | - | - | - |
| 1777347374 | 15.56° C | 54% | 1016.9 hPa | - | - | - | - |
| 1777346174 | 15.56° C | 53% | 1017 hPa | - | - | - | - |
| 1777344974 | 16.11° C | 52% | 1017.1 hPa | - | - | - | - |
| 1777343774 | 16.11° C | 51% | 1017.3 hPa | - | - | - | - |
| 1777342573 | 16.11° C | 51% | 1017.4 hPa | - | - | - | - |
| 1777341373 | 16.11° C | 51% | 1017.4 hPa | - | - | - | - |
| 1777340173 | 16.11° C | 51% | 1017.4 hPa | - | - | - | - |
| 1777338973 | 16.11° C | 51% | 1017.4 hPa | - | - | - | - |
| 1777337772 | 16.67° C | 51% | 1017.4 hPa | - | - | - | - |
| 1777336572 | 16.67° C | 51% | 1017.5 hPa | - | - | - | - |
| 1777335372 | 17.22° C | 54% | 1017.7 hPa | - | - | - | - |
| 1777334172 | 17.22° C | 56% | 1017.6 hPa | - | - | - | - |
* Rain since midnight (hover to see other rain measurements)
** Current wind speed in m/s (hover to see current wind gust speed)